Regional Weather Roundup
Issued by NWS Goodland, KS

Home | Current Version | Previous Version | Text Only | Print | Product List | Glossary Off
Versions: 1 2 3 4 5 6 7 8 9 10 11 12 13 14 15 16 17 18 19 20 21 22 23 24 25 26 27 28 29 30 31 32 33 34 35 36 37 38 39 40 41 42 43 44 45 46 47 48 49 50

000
ASUS43 KGLD 250959
RWRGLD

GOODLAND FORECAST AREA HOURLY WEATHER ROUNDUP
NATIONAL WEATHER SERVICE GOODLAND KS
400 AM MDT SAT APR 25 2015

...OFFICIAL OBSERVATIONS...

CITY           SKY/WX    TMP DP  RH WIND       PRES   REMARKS
GOODLAND KS    MOCLDY    46  41  82 W7        29.63S
HILL CITY KS   CLOUDY    53  49  86 W8        29.51F
IMPERIAL NEB   MOCLDY    48  41  76 NW12      29.60R
MCCOOK NEB     CLOUDY    51  46  83 W8        29.55R
AKRON CO       MOCLDY    42  36  79 W9        29.68R
BURLINGTON CO  MOCLDY    46  39  76 NW9       29.66S
LIMON CO       CLEAR     37  32  82 N8        29.73R
$$

...UNOFFICIAL OBSERVATIONS...

CITY           SKY/WX    TMP DP  RH WIND       PRES   REMARKS
COLBY KS       CLEAR     46  46 100 W9        29.59F
GOVE KS          N/A     51  32  48 MISG        N/A
LENORA KS        N/A     51  32  48 MISG        N/A
NORTON KS      CLEAR     50  45  81 W9        29.54R
SHARON SPRINGS   N/A     47  42  83 N6          N/A
TRIBUNE KS     MOCLDY    48  45  87 NW8       29.68R
KIT CARSON CO    N/A     43  38  83 MISG        N/A
$$


USA.gov is the U.S. government's official web portal to all federal, state and local government web resources and services.